Charleston, WV

5:36 PM EST on February 24, 2017 (GMT -0500)
Yeager Airport

Weather History for KCRW - September, 2013

Change the Weather History Date:

Friday, September 13, 2013

  Actual Average Record
Temperature  
Mean Temperature 63 °F 68 °F  
Max Temperature 70 °F 79 °F 101 °F (1931)
Min Temperature 56 °F 58 °F 42 °F (1917)
Degree Days  
Heating Degree Days 2 1  
Month to date heating degree days 2 6  
Since 1 July heating degree days 5 8  
Cooling Degree Days 0 4  
Month to date cooling degree days 98 76  
Year to date cooling degree days 1064 1022  
Growing Degree Days 14 (Base 50)    
Moisture  
Dew Point 56 °F    
Average Humidity 74    
Maximum Humidity 100    
Minimum Humidity 48    
Precipitation  
Precipitation 0.04 in 0.11 in 2.05 in (1991)
Month to date precipitation 1.48 1.44  
Year to date precipitation 35.52 32.55  
Snow  
Snow 0.00 in - - ()
Month to date snowfall 0.0  
Since 1 September snowfall 0.0  
Snow Depth 0.00 in    
Sea Level Pressure  
Sea Level Pressure 29.94 in    
Wind  
Wind Speed 7 mph (NW)    
Max Wind Speed 17 mph    
Max Gust Speed 24 mph    
Visibility 9 miles    
Events Rain    
T = Trace of Precipitation, MM = Missing Value Source: NWS Daily Summary

Daily Weather History Graph

Daily Weather History Graph

Search for Another Location

Airport or City:

Trip Planner

Search our weather history database for the weather conditions in past years. The results will help you decide how hot, cold, wet, or windy it might be!

Date:

Astronomy

Sep. 13, 2013 Rise Set
Actual Time 7:06 AM EDT 7:37 PM EDT
Civil Twilight 6:39 AM EDT 8:03 PM EDT
Nautical Twilight 6:08 AM EDT 8:35 PM EDT
Astronomical Twilight 5:36 AM EDT 9:06 PM EDT
Moon 3:22 PM EDT (9/13) 12:38 AM EDT (9/13)
Length of Visible Light 13h 23m
Length of Day
12h 30m
First Quarter, 61% of the Moon is Illuminated
Sep 13
First Quarter
Sep 19
Full
Sep 26
Last Quarter
Oct 4
New
Oct 11
First Quarter

Hourly Weather History & Observations

Time (EDT) Temp. Dew Point Humidity Pressure Visibility Wind Dir Wind Speed Gust Speed Precip Events Conditions
12:54 AM 66.9 °F 66.9 °F 100% 29.85 in 5.0 mi SW 5.8 mph - N/A   Overcast
1:54 AM 68.0 °F 68.0 °F 100% 29.83 in 6.0 mi SW 4.6 mph - N/A   Overcast
2:54 AM 68.0 °F 66.9 °F 96% 29.82 in 6.0 mi WSW 10.4 mph - 0.02 in   Overcast
3:54 AM 64.9 °F 64.0 °F 97% 29.85 in 6.0 mi NNW 5.8 mph - 0.02 in Rain Light Rain
4:20 AM 64.4 °F 62.6 °F 94% 29.87 in 10.0 mi NW 10.4 mph - 0.00 in   Overcast
4:54 AM 64.0 °F 63.0 °F 96% 29.86 in 10.0 mi NW 8.1 mph - 0.00 in   Mostly Cloudy
5:54 AM 63.0 °F 61.0 °F 93% 29.88 in 10.0 mi NW 10.4 mph - N/A   Mostly Cloudy
6:43 AM 62.6 °F 60.8 °F 94% 29.92 in 10.0 mi NW 9.2 mph - N/A   Overcast
6:54 AM 62.1 °F 60.1 °F 93% 29.91 in 10.0 mi NW 8.1 mph - N/A   Overcast
7:54 AM 61.0 °F 59.0 °F 93% 29.93 in 10.0 mi NW 9.2 mph - N/A   Overcast
8:39 AM 60.8 °F 57.2 °F 88% 29.96 in 10.0 mi NW 6.9 mph - N/A   Mostly Cloudy
8:54 AM 61.0 °F 57.9 °F 90% 29.94 in 10.0 mi NW 5.8 mph - N/A   Overcast
9:40 AM 60.8 °F 57.2 °F 88% 29.96 in 10.0 mi NW 8.1 mph - N/A   Overcast
9:54 AM 61.0 °F 57.0 °F 87% 29.95 in 10.0 mi NW 6.9 mph - N/A   Overcast
10:36 AM 62.6 °F 55.4 °F 77% 29.96 in 10.0 mi WNW 8.1 mph - 0.00 in   Mostly Cloudy
10:54 AM 64.9 °F 57.0 °F 75% 29.95 in 10.0 mi North 6.9 mph - 0.00 in   Mostly Cloudy
11:54 AM 64.9 °F 55.0 °F 70% 29.94 in 10.0 mi NW 10.4 mph - N/A   Mostly Cloudy
12:29 PM 66.2 °F 53.6 °F 64% 29.96 in 10.0 mi NNW 9.2 mph - 0.00 in   Mostly Cloudy
12:54 PM 68.0 °F 50.0 °F 52% 29.94 in 10.0 mi NNW 11.5 mph - N/A   Mostly Cloudy
1:54 PM 69.1 °F 53.1 °F 57% 29.94 in 10.0 mi WNW 11.5 mph 19.6 mph N/A   Scattered Clouds
2:54 PM 68.0 °F 48.9 °F 50% 29.94 in 10.0 mi NW 15.0 mph 24.2 mph N/A   Scattered Clouds
3:54 PM 66.9 °F 48.9 °F 52% 29.95 in 10.0 mi WNW 12.7 mph 20.7 mph N/A   Scattered Clouds
4:54 PM 68.0 °F 48.0 °F 49% 29.95 in 10.0 mi NW 10.4 mph 17.3 mph N/A   Scattered Clouds
5:54 PM 66.0 °F 46.9 °F 50% 29.96 in 10.0 mi NW 11.5 mph - N/A   Scattered Clouds
6:54 PM 64.0 °F 50.0 °F 60% 29.98 in 10.0 mi WNW 6.9 mph - N/A   Scattered Clouds
7:54 PM 60.1 °F 51.1 °F 72% 29.99 in 10.0 mi West 3.5 mph - N/A   Scattered Clouds
8:54 PM 59.0 °F 51.1 °F 75% 30.01 in 10.0 mi NW 3.5 mph - N/A   Mostly Cloudy
9:54 PM 59.0 °F 52.0 °F 78% 30.03 in 10.0 mi NNW 4.6 mph - N/A   Mostly Cloudy
10:54 PM 57.0 °F 53.1 °F 87% 30.04 in 10.0 mi Calm Calm - N/A   Mostly Cloudy
11:54 PM 55.9 °F 53.1 °F 90% 30.04 in 10.0 mi Calm Calm - N/A   Mostly Cloudy